SL-24 DEB

Satellite information

Favourite Embed

Satellite Type and Status

DEBRISIN ORBIT

Key statistics

Satellite SL-24 DEB at a glance.

Uptime

7618

Days in orbit

Revolutions

≈ 14.1

Per day

Orbit

SSO

Sun Synchronous Orbit

Inclination

98.2

Latest

Satellite identification and parameters

Extended collection of information and parameters for SL-24 DEB.

Object identification

Identified? True

Debris? True

Object name: SL-24 DEB

International designator: 2004-025L

Object number (NORAD): 37586

Object ID (CCSDS): 37586

Country: COMMONWEALTH OF INDEPENDENT STATES (CIS)

Current information (Y/N): Y

RCS size: SMALL

Orbital parameters

Period: 102.316 minutes

Inclination: 98.1868 deg

SMA: 7246.415 km

Apoapsis: 1081.546 km

Periapsis: 655.015 km

RAAN: 178.7951 deg

Eccentricy: 0.0294305

Argument of periapsis: 109.2025 deg

Mean anomaly: 254.124 deg

Mean motion: 14.07401266 rev/day

Mean motion (dot): 0.000051 rev/day2

B* drag term: 0.0020555 1/REarth

Two-line elements (TLE)

Creation date: May 7, 2025, 3:14 a.m.

Reference frame: TEME

Reference center: EARTH

Epoch: May 6, 2025, 10:07 a.m. UTC

TLE line 0: 0 SL-24 DEB

TLE line 1: 1 37586U 04025L 25126.42186520 .00005100 00000-0 20555-2 0 9999

TLE line 2: 2 37586 98.1868 178.7951 0294305 109.2025 254.1240 14.07401266749538

Live tracking on map

Real-time ground track for satellite SL-24 DEB.

In-orbit conjunctions

A list of the most updated potential collisions computed for object SL-24 DEB.

Target Orbit TCA Probability of collision Miss distance Type
ORBVIEW 1 (MICROLAB) LEO 2025-03-10 00:27:23 0.0004074589 103.0 (m) PAYLOAD
CZ-6A DEB LEO 2025-02-05 23:13:04 0.0003974624 113.0 (m) DEBRIS

Associated space launch

AprizeSat, is a constellation of small Low-Earth-Orbit satellites (64 satellites planned) to achieve a global communication system of data transmission and fixed and mobile asset tracking and monitoring (GMPCS).

SL-24 DEB was lifted into orbit during the mission ‘Dnepr | Aprizesat-2’, on board a Dnepr space rocket.

The launch took place on June 29, 2004, 6:30 a.m. from 109/95.

For more information about the launch, click the button.

Launch to space Dnepr | Aprizesat-2
Dnepr | Aprizesat-2

Agency: N/A

Status: Launch Successful

Launch date: June 29, 2004, 6:30 a.m. UTC

Rocket: Dnepr

Launch pad: 109/95

Location: Baikonur Cosmodrome, Republic of Kazakhstan

...

Latest news about this satellite

There are no fresh news available about this satellite. Check back as we update our databases every day.


Newsletter sign-up

Weekly statistics, charts and insights to help you stay on top of the space industry.